軌道要素
Epoch 2007 Aug. 8.0 TT = JDT 2454320.5
T 2007 Aug. 17.64701 TT MPC
q 2.2809910 (2000.0) P Q
n 0.14033207 Peri. 202.61067 +0.96952985 +0.21365511
a 3.6674548 Node 144.37700 -0.18124847 +0.95474787
e 0.3780452 Incl. 11.87424 -0.16480555 +0.20690095
P 7.02
From 1045 observations 2006 Apr. 25-2013 May 2, mean residual 0".8.
|